Find Starlink 37129

NORAD ID: 68274 Int'l Des: 2026-055 Owner: SPXS Country: US Constellation: starlink operational
LEOCIRCULAR

Live Position

Loading 3D Globe...

About Starlink 37129

Description loading...

Upcoming Passes

Passes for default location (London). Set your location on the main map for personalized predictions.

Altitude History

Loading altitude history...

Two-Line Element Set

1 68274U 26055N 26124.51250388 .00040817 00000-0 94135-3 0 9997
2 68274 53.1603 60.2598 0001222 81.6608 278.4536 15.42193733 8475
Epoch: May 4, 2026 • Age: 17 hours

Current Status

Altitude 453.8 km
Velocity 7.64 km/s
Sub-Earth Point -41.03°S, 18.67°W
Launch Date Mar 19, 2026
Age 0.1 years
Type internet

Technical Details

Classification Payload
Mass 575.00 kg
Dry Mass 530.00 kg
Total Mass 575.00 kg
Length 0.30 m
Diameter 4.10 m
Span 29.00 m
Shape Box + pan
Manufacturer SPXS
Bus Type Starlink V2MO
Phase Status In Orbit
Owner/State SPXS/US

Most Searched